This is the latest recevied weather packets stored in our database for station/object KG7FOQ-13. If no packets are shown the sender has not sent any weather packets the latest 10 day(s).
| Time | Temp. | Humidity | Pressure | Rain* | Wind** | Luminosity | Snow |
|---|---|---|---|---|---|---|---|
| 1777659967 | 16.67° C | 27% | 1021.7 hPa | 0 mm | - | - | - |
| 1777659667 | 16.11° C | 31% | 1021.8 hPa | 0 mm | - | - | - |
| 1777659366 | 16.11° C | 32% | 1021.9 hPa | 0 mm | - | - | - |
| 1777658764 | 15.56° C | 32% | 1021.9 hPa | 0 mm | - | - | - |
| 1777658464 | 15° C | 32% | 1021.9 hPa | 0 mm | - | - | - |
| 1777658163 | 14.44° C | 34% | 1022 hPa | 0 mm | - | - | - |
| 1777657863 | 15° C | 35% | 1021.9 hPa | 0 mm | - | - | - |
| 1777657562 | 15° C | 36% | 1022 hPa | 0 mm | - | - | - |
| 1777657261 | 14.44° C | 38% | 1022 hPa | 0 mm | - | - | - |
| 1777656961 | 15° C | 38% | 1022 hPa | 0 mm | - | - | - |
| 1777656660 | 14.44° C | 38% | 1022 hPa | 0 mm | - | - | - |
| 1777656360 | 13.89° C | 40% | 1022.2 hPa | 0 mm | - | - | - |
| 1777656060 | 13.89° C | 39% | 1022.2 hPa | 0 mm | - | - | - |
| 1777655759 | 13.33° C | 40% | 1022.2 hPa | 0 mm | - | - | - |
| 1777655458 | 13.89° C | 41% | 1022.3 hPa | 0 mm | - | - | - |
| 1777655158 | 13.33° C | 40% | 1022.3 hPa | 0 mm | - | - | - |
| 1777654857 | 13.89° C | 41% | 1022.3 hPa | 0 mm | - | - | - |
| 1777654557 | 12.78° C | 40% | 1022.2 hPa | 0 mm | - | - | - |
| 1777654256 | 13.33° C | 40% | 1022.2 hPa | 0 mm | - | - | - |
| 1777653956 | 13.33° C | 43% | 1022.2 hPa | 0 mm | - | - | - |
| 1777653655 | 12.78° C | 43% | 1022.2 hPa | 0 mm | - | - | - |
| 1777653355 | 12.78° C | 43% | 1022.3 hPa | 0 mm | - | - | - |
| 1777653054 | 12.22° C | 43% | 1022.2 hPa | 0 mm | - | - | - |
| 1777652754 | 12.22° C | 43% | 1022.3 hPa | 0 mm | - | - | - |
| 1777652453 | 12.22° C | 42% | 1022.2 hPa | 0 mm | - | - | - |
* Rain latest hour (hover to see other rain measurements)
** Current wind speed in m/s (hover to see current wind gust speed)